When you browse on this site, cookies collect data to enhance your experience and personalize the content and advertising you see.
Visit our Privacy Policy to learn more. By continuing to use the site, you agree to this use of cookies and data.
  • In United Kingdom
  • List of Countries
  • For 7 days
  • Water Temperature
  • Satellite Maps
  • Weather Map
  • Weather Widgets
  • user-avatar
    Login

    Hourly Weather Vivcharove

    Today, 25 April, Thursday

    Time Temperature Precipitation Wind Pressure Humidity
    00:00 +14°C° 0 mm 1 mps 759 mmHg 59%
    01:00 +14°C° 0 mm 1 mps 759 mmHg 60%
    02:00 +13°C° 0 mm 1 mps 759 mmHg 61%
    03:00 +13°C° 0 mm 1 mps 759 mmHg 62%
    04:00 +13°C° 0 mm 1 mps 759 mmHg 64%
    05:00 +13°C° 0 mm 1 mps 759 mmHg 65%
    06:00 +13°C° 0 mm 1 mps 759 mmHg 67%
    07:00 +15°C° 0 mm 1 mps 759 mmHg 62%
    08:00 +17°C° 0 mm 2 mps 759 mmHg 57%
    09:00 +19°C° 0 mm 2 mps 759 mmHg 51%
    10:00 +21°C° 0 mm 2 mps 759 mmHg 47%
    11:00 +23°C° 0 mm 2 mps 759 mmHg 43%
    12:00 +24°C° 0 mm 2 mps 759 mmHg 39%
    13:00 +25°C° 0 mm 2 mps 759 mmHg 37%
    14:00 +25°C° 0 mm 2 mps 759 mmHg 36%
    15:00 +26°C° 0 mm 2 mps 758 mmHg 35%
    16:00 +25°C° 0 mm 2 mps 758 mmHg 38%
    17:00 +25°C° 0 mm 1 mps 758 mmHg 41%
    18:00 +25°C° 0 mm 1 mps 758 mmHg 44%
    19:00 +23°C° 0 mm 1 mps 758 mmHg 47%
    20:00 +21°C° 0 mm 1 mps 758 mmHg 50%
    21:00 +19°C° 0 mm 1 mps 757 mmHg 53%
    22:00 +19°C° 0 mm 1 mps 757 mmHg 54%
    23:00 +18°C° 0 mm 1 mps 757 mmHg 56%

    Tomorrow, 26 April, Friday

    Time Temperature Precipitation Wind Pressure Humidity
    00:00 +18°C° 0 mm 1 mps 757 mmHg 57%
    01:00 +16°C° 0.1 mm 1 mps 757 mmHg 59%
    02:00 +16°C° 0.1 mm 1 mps 757 mmHg 61%
    03:00 +15°C° 0.1 mm 1 mps 757 mmHg 64%
    04:00 +15°C° 0.6 mm 1 mps 757 mmHg 66%
    05:00 +15°C° 0.6 mm 1 mps 757 mmHg 69%
    06:00 +15°C° 0.6 mm 1 mps 757 mmHg 71%
    07:00 +16°C° 0.9 mm 1 mps 757 mmHg 69%
    08:00 +18°C° 0.9 mm 1 mps 757 mmHg 66%
    09:00 +20°C° 0.9 mm 1 mps 757 mmHg 64%
    10:00 +21°C° 0 mm 1 mps 757 mmHg 57%
    11:00 +23°C° 0 mm 1 mps 756 mmHg 50%
    12:00 +24°C° 0 mm 1 mps 756 mmHg 43%
    13:00 +24°C° 0 mm 1 mps 756 mmHg 42%
    14:00 +25°C° 0 mm 1 mps 756 mmHg 40%
    15:00 +25°C° 0 mm 1 mps 756 mmHg 38%
    16:00 +25°C° 0 mm 1 mps 756 mmHg 41%
    17:00 +24°C° 0 mm 1 mps 755 mmHg 45%
    18:00 +24°C° 0 mm 1 mps 755 mmHg 48%
    19:00 +22°C° 0.2 mm 1 mps 755 mmHg 53%
    20:00 +20°C° 0.2 mm 1 mps 755 mmHg 57%
    21:00 +18°C° 0.2 mm 2 mps 755 mmHg 61%
    22:00 +17°C° 0.6 mm 2 mps 755 mmHg 68%
    23:00 +16°C° 0.6 mm 3 mps 755 mmHg 75%

    Day after tomorrow, 27 April, Saturday

    Time Temperature Precipitation Wind Pressure Humidity
    00:00 +16°C° 0.6 mm 3 mps 755 mmHg 82%
    01:00 +14°C° 0.1 mm 3 mps 755 mmHg 83%
    02:00 +15°C° 0.1 mm 2 mps 755 mmHg 85%
    03:00 +15°C° 0.1 mm 1 mps 755 mmHg 86%
    04:00 +15°C° 0 mm 1 mps 755 mmHg 86%
    05:00 +15°C° 0 mm 1 mps 754 mmHg 86%
    06:00 +14°C° 0 mm 1 mps 754 mmHg 86%
    07:00 +16°C° 0 mm 1 mps 754 mmHg 78%
    08:00 +18°C° 0 mm 2 mps 754 mmHg 70%
    09:00 +20°C° 0 mm 2 mps 754 mmHg 63%
    10:00 +21°C° 0 mm 3 mps 754 mmHg 56%
    11:00 +22°C° 0 mm 3 mps 754 mmHg 49%
    12:00 +23°C° 0 mm 4 mps 753 mmHg 43%
    13:00 +23°C° 0 mm 4 mps 753 mmHg 41%
    14:00 +25°C° 0 mm 4 mps 753 mmHg 39%
    15:00 +25°C° 0 mm 4 mps 752 mmHg 37%
    16:00 +24°C° 0 mm 3 mps 752 mmHg 40%
    17:00 +24°C° 0 mm 3 mps 752 mmHg 43%
    18:00 +23°C° 0 mm 2 mps 751 mmHg 46%
    19:00 +21°C° 0 mm 2 mps 751 mmHg 50%
    20:00 +19°C° 0 mm 3 mps 751 mmHg 53%
    21:00 +17°C° 0 mm 3 mps 752 mmHg 56%
    22:00 +17°C° 0.3 mm 3 mps 751 mmHg 63%
    23:00 +16°C° 0.3 mm 3 mps 751 mmHg 69%

    28 April, Sunday

    Time Temperature Precipitation Wind Pressure Humidity
    00:00 +14°C° 0.3 mm 3 mps 751 mmHg 76%
    01:00 +14°C° 0.2 mm 3 mps 751 mmHg 79%
    02:00 +13°C° 0.2 mm 3 mps 751 mmHg 82%
    03:00 +13°C° 0.2 mm 3 mps 751 mmHg 84%
    04:00 +14°C° 0 mm 2 mps 750 mmHg 84%
    05:00 +14°C° 0 mm 2 mps 750 mmHg 83%
    06:00 +14°C° 0 mm 2 mps 750 mmHg 82%
    07:00 +16°C° 0 mm 2 mps 750 mmHg 74%
    08:00 +18°C° 0 mm 2 mps 750 mmHg 65%
    09:00 +20°C° 0 mm 3 mps 750 mmHg 57%
    10:00 +21°C° 0 mm 3 mps 750 mmHg 52%
    11:00 +22°C° 0 mm 4 mps 749 mmHg 47%
    12:00 +23°C° 0 mm 5 mps 749 mmHg 42%
    13:00 +23°C° 0 mm 6 mps 749 mmHg 42%
    14:00 +23°C° 0 mm 6 mps 748 mmHg 42%
    15:00 +24°C° 0 mm 6 mps 748 mmHg 43%
    16:00 +23°C° 0 mm 5 mps 748 mmHg 47%
    17:00 +22°C° 0 mm 4 mps 748 mmHg 51%
    18:00 +21°C° 0 mm 3 mps 747 mmHg 55%
    19:00 +20°C° 0 mm 3 mps 747 mmHg 57%
    20:00 +19°C° 0 mm 3 mps 748 mmHg 60%
    21:00 +18°C° 0 mm 2 mps 748 mmHg 62%
    22:00 +17°C° 0 mm 2 mps 748 mmHg 63%
    23:00 +17°C° 0 mm 2 mps 748 mmHg 64%

    29 April, Monday

    Time Temperature Precipitation Wind Pressure Humidity
    00:00 +17°C° 0 mm 2 mps 748 mmHg 65%
    01:00 +16°C° 0 mm 2 mps 748 mmHg 68%
    02:00 +16°C° 0 mm 2 mps 748 mmHg 72%
    03:00 +15°C° 0 mm 1 mps 748 mmHg 75%
    04:00 +14°C° 0 mm 2 mps 748 mmHg 79%
    05:00 +12°C° 0 mm 3 mps 748 mmHg 84%
    06:00 +10°C° 0 mm 5 mps 748 mmHg 88%
    07:00 +10°C° 0.3 mm 5 mps 749 mmHg 86%
    08:00 +9°C° 0.3 mm 6 mps 749 mmHg 85%
    09:00 +9°C° 0.3 mm 6 mps 749 mmHg 83%
    10:00 +8°C° 0.8 mm 6 mps 750 mmHg 84%
    11:00 +7°C° 0.8 mm 6 mps 750 mmHg 84%
    12:00 +7°C° 0.8 mm 6 mps 751 mmHg 85%
    13:00 +7°C° 0.7 mm 6 mps 751 mmHg 84%
    14:00 +7°C° 0.7 mm 6 mps 751 mmHg 84%
    15:00 +8°C° 0.7 mm 7 mps 751 mmHg 83%
    16:00 +8°C° 0.1 mm 7 mps 752 mmHg 80%
    17:00 +8°C° 0.1 mm 7 mps 752 mmHg 77%
    18:00 +8°C° 0.1 mm 7 mps 752 mmHg 74%
    19:00 +7°C° 0 mm 6 mps 752 mmHg 75%
    20:00 +6°C° 0 mm 5 mps 753 mmHg 76%
    21:00 +6°C° 0 mm 4 mps 753 mmHg 78%
    22:00 +6°C° 0 mm 4 mps 754 mmHg 77%
    23:00 +5°C° 0 mm 4 mps 754 mmHg 76%

    30 April, Tuesday

    Time Temperature Precipitation Wind Pressure Humidity
    00:00 +5°C° 0 mm 4 mps 754 mmHg 76%
    01:00 +5°C° 0 mm 5 mps 754 mmHg 74%
    02:00 +5°C° 0 mm 5 mps 754 mmHg 72%
    03:00 +5°C° 0 mm 5 mps 754 mmHg 70%
    04:00 +4°C° 0 mm 6 mps 754 mmHg 69%
    05:00 +4°C° 0 mm 6 mps 755 mmHg 68%
    06:00 +4°C° 0 mm 6 mps 755 mmHg 67%
    07:00 +4°C° 0 mm 6 mps 755 mmHg 65%
    08:00 +4°C° 0 mm 6 mps 755 mmHg 64%
    09:00 +4°C° 0 mm 7 mps 755 mmHg 63%
    10:00 +4°C° 0.1 mm 7 mps 755 mmHg 61%
    11:00 +5°C° 0.1 mm 7 mps 755 mmHg 59%
    12:00 +5°C° 0.1 mm 7 mps 755 mmHg 57%
    13:00 +5°C° 0.5 mm 6 mps 755 mmHg 60%
    14:00 +5°C° 0.5 mm 6 mps 755 mmHg 62%
    15:00 +6°C° 0.5 mm 5 mps 755 mmHg 64%
    16:00 +6°C° 0.4 mm 5 mps 755 mmHg 65%
    17:00 +6°C° 0.4 mm 5 mps 754 mmHg 66%
    18:00 +6°C° 0.4 mm 5 mps 754 mmHg 68%
    19:00 +6°C° 0 mm 5 mps 754 mmHg 69%
    20:00 +6°C° 0 mm 5 mps 754 mmHg 70%
    21:00 +4°C° 0 mm 6 mps 754 mmHg 71%
    22:00 +4°C° 0 mm 6 mps 754 mmHg 70%
    23:00 +5°C° 0 mm 6 mps 754 mmHg 70%
    Show more